Location: Austin, TX
(30.3000°N, 97.7500°W)
Time: 06:44:11
(UTC-05:00)

Cosmos 1666 - Visible Passes

Search period start: 27 May 2015 00:00
Search period end: 06 June 2015 00:00
Orbit: 508 x 535 km, 82.5° (Epoch: 26 May)

Date Brightness Start Highest point End Pass type
(mag) Time Alt. Az. Time Alt. Az. Time Alt. Az.
27 May 3.1 21:43:36 10° N 21:47:12 41° E 21:48:13 33° ESE visible
28 May 3.4 21:30:26 10° NNE 21:33:54 34° E 21:35:30 24° SE visible
29 May 3.7 21:17:18 10° NNE 21:20:36 29° E 21:22:50 17° SE visible
29 May 5.6 22:54:57 10° WNW 22:56:12 11° W 22:57:11 10° WSW visible
30 May 3.9 21:04:11 10° NNE 21:07:17 25° ENE 21:10:11 11° SE visible
30 May 5.5 22:41:00 10° WNW 22:42:56 13° W 22:44:41 10° WSW visible
31 May 4.1 20:51:06 10° NNE 20:53:58 21° ENE 20:56:56 10° SE visible
31 May 5.4 22:27:18 10° NW 22:29:41 16° W 22:31:55 10° SW visible
01 Jun 5.2 22:13:42 10° NW 22:16:25 19° W 22:19:02 10° SW visible
02 Jun 5.0 22:00:09 10° NW 22:03:10 22° W 22:06:03 10° SW visible
03 Jun 4.8 21:46:41 10° NNW 21:49:53 26° W 21:53:02 10° SSW visible
04 Jun 4.5 21:33:14 10° NNW 21:36:37 31° W 21:39:57 10° SSW visible
05 Jun 4.2 21:19:49 10° NNW 21:23:20 37° W 21:26:50 10° SSW visible
